Notices

What's New in latest Release from April 7th, 2021:

- Updated Glossary, including Speed of Maximum Gust, and Total Hourly Precipitation

- Updated national and regional climate services offices contacts and prices information

- Addition of station inventory lists for 1981-2010, 1971-2000, and 1961-1990 Normals.

If you haven't already, please take our survey and provide feedback about our website: https://eccc.sondage-survey.ca/f/LanguageSelection.aspx?s=442ca660-fcf1-47c0-95a9-59707d6fd709

Hourly Data Report for November 01, 2018

CARBERRY CS
MANITOBA
Current Station Operator: ECCC - MSC

49°54'20.900" N
99°21'26.800" W
383.50 m
5010547
71170
WZE

Download Data

Hourly Data (November 2018)
Hourly Data Report for November 1, 2018
TIME
LST
Temp Definition
°C
Dew Point Definition
°C
Rel Hum Definition
%
Precip. Amount Definition
mm

Wind Dir Definition
10's deg

Wind Spd Definition
km/h
Visibility Definition
km
Stn Press Definition
kPa
Hmdx Definition


Wind Chill Definition


Weather Definition


00:00 -1.1 -2.6 90 0.0 11 3   96.67   -2 LegendNANA
01:00 -2.0 -3.3 91 0.0 9 4   96.69   -3 LegendNANA
02:00 -2.2 -3.3 92 0.0 13 6   96.69   -5 LegendNANA
03:00 -1.1 -2.5 91 0.0 13 8   96.67   -4 LegendNANA
04:00 -0.8 -2.2 91 0.0 13 6   96.64   -3 LegendNANA
05:00 -1.9 -3.1 92 0.0 13 6   96.63   -4 LegendNANA
06:00 -2.5 -3.4 93 0.0 15 10   96.61   -6 LegendNANA
07:00 -2.0 -3.0 93 0.0 15 12   96.56   -6 LegendNANA
08:00 -2.0 -3.1 92 0.0 13 10   96.54   -6 LegendNANA
09:00 -1.4 -2.5 92 0.0 13 10   96.54   -5 LegendNANA
10:00 0.5 -1.4 87 0.0 12 12   96.52     LegendNANA
11:00 2.7 -0.6 79 0.0 13 13   96.47     LegendNANA
12:00 4.0 0.1 75 0.0 13 16   96.46     LegendNANA
13:00 4.1 0.3 76 0.0 12 13   96.46     LegendNANA
14:00 4.7 0.7 75 0.0 13 10   96.44     LegendNANA
15:00 5.0 1.1 76 0.0 14 8   96.45     LegendNANA
16:00 4.8 1.4 79 0.0 11 8   96.48     LegendNANA
17:00 4.1 2.0 86 0.0 11 5   96.54     LegendNANA
18:00 3.2 2.1 92 0.0 4 8   96.59     LegendNANA
19:00 2.8 2.2 96 0.0 6 8   96.62     LegendNANA
20:00 2.4 2.0 97 0.0 7 7   96.67     LegendNANA
21:00 2.2 1.5 95 0.0 10 4   96.73     LegendNANA
22:00 1.9 1.7 99 0.3 5 3   96.76     LegendNANA
23:00 1.8 1.7 99 0.2 8 2   96.77     LegendNANA

Notes on Data Quality.

Legend

  • E = Estimated
  • M = Missing
  • NA = Not Available*
  • [empty] = Indicates an unobserved value
Date modified: